Location: Härggis
(46.9540°N, 8.4897°E)
Time: 02:30:35
(UTC+00:00)

Cosmos 1544 Rocket - Pass Details

Date: 27 May 2022
Orbit: 603 x 631 km, 82.5° (Epoch: 26 June)

Event Time Altitude Azimuth Distance (km) Brightness Sun altitude
Rises 01:20:46 0° 348° (NNW) 2,916 7.8 -16.8°
Reaches altitude 10° 01:23:02 10° 345° (NNW) 2,001 6.8 -16.6°
Maximum altitude 01:27:24 63° 265° (W) 692 3.6 -16.2°
Enters shadow 01:29:34 28° 193° (SSW) 1,155 4.4 -16.1°
